Crossville, TN

4:28 PM CDT on October 23, 2017 (GMT -0500)
Crossville Memorial-Whitson

Weather History for KCSV - December, 2012

Change the Weather History Date:

Saturday, December 15, 2012

  Actual Average Record
Temperature  
Mean Temperature 49 °F 38 °F  
Max Temperature 58 °F 47 °F 69 °F (1984)
Min Temperature 40 °F 30 °F 2 °F (1989)
Degree Days  
Heating Degree Days 16    
Month to date heating degree days 233  
Since 1 July heating degree days 1198  
Cooling Degree Days 0    
Month to date cooling degree days 0  
Year to date cooling degree days 1156  
Moisture  
Dew Point 40 °F    
Average Humidity 67    
Maximum Humidity 86    
Minimum Humidity 47    
Precipitation  
Precipitation 0.11 in 0.16 in 1.48 in (1982)
Month to date precipitation 1.54 2.60  
Year to date precipitation 43.31 52.74  
Sea Level Pressure  
Sea Level Pressure 30.04 in    
Wind  
Wind Speed 7 mph (South)    
Max Wind Speed 18 mph    
Max Gust Speed 28 mph    
Visibility 9 miles    
Events Rain    
T = Trace of Precipitation, MM = Missing Value Source: NWS Daily Summary

Daily Weather History Graph

Daily Weather History Graph

Search for Another Location

Airport or City:

Trip Planner

Search our weather history database for the weather conditions in past years. The results will help you decide how hot, cold, wet, or windy it might be!

Date:

Astronomy

Dec. 15, 2012 Rise Set
Actual Time 6:43 AM CST 4:27 PM CST
Civil Twilight 6:15 AM CST 4:56 PM CST
Nautical Twilight 5:43 AM CST 5:28 PM CST
Astronomical Twilight 5:11 AM CST 5:59 PM CST
Moon 8:39 AM CST (12/15) 7:26 PM CST (12/15)
Length of Visible Light 10h 41m
Length of Day
9h 43m
Waxing Crescent, 8% of the Moon is Illuminated
Dec 15
Waxing Crescent
Dec 19
First Quarter
Dec 28
Full
Jan 4
Last Quarter
Jan 11
New

Hourly Weather History & Observations

Time (CST) Temp. Windchill Dew Point Humidity Pressure Visibility Wind Dir Wind Speed Gust Speed Precip Events Conditions
12:53 AM 42.1 °F - 34.0 °F 73% 30.15 in 10.0 mi Calm Calm - N/A   Clear
1:53 AM 46.0 °F 43.1 °F 34.0 °F 63% 30.15 in 10.0 mi South 5.8 mph - N/A   Clear
2:53 AM 46.0 °F 43.1 °F 34.0 °F 63% 30.12 in 10.0 mi Variable 5.8 mph - N/A   Clear
3:53 AM 46.0 °F 43.9 °F 34.0 °F 63% 30.14 in 10.0 mi South 4.6 mph - N/A   Clear
4:53 AM 46.0 °F 43.1 °F 34.0 °F 63% 30.15 in 10.0 mi South 5.8 mph - N/A   Clear
5:53 AM 46.0 °F 43.9 °F 35.1 °F 66% 30.16 in 10.0 mi Variable 4.6 mph - N/A   Partly Cloudy
6:53 AM 46.0 °F 43.1 °F 36.0 °F 68% 30.16 in 10.0 mi South 5.8 mph - N/A   Scattered Clouds
8:53 AM 48.9 °F - 36.0 °F 61% 30.14 in 10.0 mi South 9.2 mph 19.6 mph N/A   Overcast
9:53 AM 48.9 °F - 37.9 °F 66% 30.13 in 10.0 mi South 8.1 mph 20.7 mph 0.00 in   Overcast
10:53 AM 50.0 °F - 37.9 °F 63% 30.10 in 10.0 mi South 11.5 mph 20.7 mph N/A   Overcast
11:53 AM 54.0 °F - 39.0 °F 57% 30.05 in 10.0 mi SSE 6.9 mph 18.4 mph N/A   Overcast
12:53 PM 54.0 °F - 37.9 °F 55% 30.01 in 10.0 mi SSE 11.5 mph 18.4 mph N/A   Partly Cloudy
1:53 PM 57.0 °F - 37.9 °F 49% 29.99 in 10.0 mi South 12.7 mph 21.9 mph N/A   Mostly Cloudy
2:53 PM 55.0 °F - 37.9 °F 53% 29.98 in 10.0 mi SSW 9.2 mph 19.6 mph N/A   Partly Cloudy
3:53 PM 54.0 °F - 39.0 °F 57% 29.99 in 10.0 mi Variable 3.5 mph - N/A   Overcast
4:53 PM 53.1 °F - 39.9 °F 61% 29.96 in 10.0 mi South 9.2 mph 17.3 mph N/A   Overcast
5:53 PM 53.1 °F - 42.1 °F 66% 29.97 in 10.0 mi South 8.1 mph - N/A   Mostly Cloudy
6:53 PM 52.0 °F - 42.1 °F 69% 29.97 in 10.0 mi South 8.1 mph 21.9 mph N/A   Mostly Cloudy
7:53 PM 51.1 °F - 44.1 °F 77% 29.96 in 10.0 mi Variable 5.8 mph 17.3 mph 0.00 in Rain Light Rain
8:53 PM 50.0 °F - 46.9 °F 89% 29.97 in 4.0 mi Variable 5.8 mph - 0.08 in Rain Light Rain
9:31 PM 48.2 °F - 46.4 °F 93% 29.97 in 6.0 mi South 9.2 mph 17.3 mph 0.02 in   Overcast
9:53 PM 50.0 °F - 46.9 °F 89% 29.97 in 8.0 mi South 6.9 mph - 0.02 in Rain Light Rain
10:00 PM 50.0 °F - 46.4 °F 87% 29.98 in 7.0 mi Variable 4.6 mph - 0.00 in Rain Light Rain
10:46 PM 51.8 °F - 48.2 °F 88% 29.98 in 7.0 mi South 8.1 mph - 0.01 in   Overcast
10:53 PM 51.1 °F - 48.0 °F 89% 29.97 in 7.0 mi South 9.2 mph - 0.01 in   Overcast
11:53 PM 51.1 °F - 48.9 °F 92% 29.96 in 9.0 mi South 8.1 mph 17.3 mph N/A   Overcast